Date String (YYYY-MM-DD hh:mm:ss) UTC,Instrument flags,Ambient pressure (hPa),Sample flow (lpm),Bypass flow (lpm),Sample temperature (°C),Ambient temperature (°C),ASC tube jacket temperature (°C),LED temperature (°C),Box temperature (°C),Sample RH (%),Span deviation,Mass concentration (μg/m³),Mass concentration (μg/m³),Mass concentration (μg/m³)
DateTimeUTC,F1_M11,P_M11,Q1_M11,Q2_M11,T1_M11,T2_M11,T3_M11,T4_M11,T5_M11,U1_M11,ZSPAN_M11,X0_M11,X2_M11,X1_M11
2022-06-14 00:00:00,,0812.0,5.01,0.00,29.0,27.0,00.0,37.7,30.8,14.1,0003.8,0032.86,0026.47,0025.37
2022-06-14 00:01:00,,0812.1,4.99,0.00,28.9,27.1,00.0,37.7,30.8,13.6,0003.9,0032.87,0026.26,0025.16
2022-06-14 00:02:00,,0812.1,5.00,0.00,28.9,27.3,00.0,37.7,30.8,13.4,0004.3,0032.91,0026.06,0024.93
2022-06-14 00:03:00,,0812.0,5.01,0.00,29.0,27.5,00.0,37.7,30.9,13.3,0004.4,0032.65,0025.91,0024.77
2022-06-14 00:04:00,,0812.1,4.99,0.00,29.0,27.7,00.0,37.7,31.0,13.4,0004.8,0032.72,0025.87,0024.70
2022-06-14 00:05:00,,0812.0,5.00,0.00,29.1,28.0,00.0,37.8,31.1,13.1,0005.2,0032.50,0025.75,0024.55
2022-06-14 00:06:00,,0812.0,4.99,0.00,29.1,27.9,00.0,37.8,31.1,13.0,0005.2,0032.44,0025.46,0024.25
2022-06-14 00:07:00,,0812.1,5.01,0.00,29.0,27.2,00.0,37.7,30.9,13.1,0005.2,0031.86,0024.93,0023.71
2022-06-14 00:08:00,,0812.0,5.00,0.00,29.0,27.0,00.0,37.7,30.8,13.2,0005.3,0031.15,0024.11,0022.89
2022-06-14 00:09:00,,0812.1,4.99,0.00,29.0,27.1,00.0,37.7,30.8,13.5,0005.5,0030.25,0023.25,0022.03
2022-06-14 00:10:00,,0812.0,5.01,0.00,29.0,27.2,00.0,37.7,30.8,13.9,0005.3,0029.21,0022.35,0021.14
2022-06-14 00:11:00,,0812.0,5.01,0.00,29.0,27.4,00.0,37.7,30.9,14.1,0005.3,0027.72,0021.51,0020.36
2022-06-14 00:12:00,,0812.0,5.00,0.00,29.0,27.7,00.0,37.8,31.0,13.8,0005.4,0027.58,0021.00,0019.82
2022-06-14 00:13:00,,0812.0,5.01,0.00,29.1,27.9,00.0,37.8,31.1,13.7,0005.4,0026.69,0020.33,0019.19
2022-06-14 00:14:00,,0812.0,5.00,0.00,29.1,28.0,00.0,37.8,31.2,13.3,0005.6,0026.94,0019.61,0018.50
2022-06-14 00:15:00,,0812.0,4.99,0.00,29.1,27.7,00.0,37.8,31.0,12.9,0005.8,0025.98,0018.77,0017.69
2022-06-14 00:16:00,,0812.0,5.00,0.00,29.0,27.1,00.0,37.7,30.8,13.0,0005.7,0025.27,0018.00,0016.93
2022-06-14 00:17:00,,0812.0,5.01,0.00,29.0,27.1,00.0,37.7,30.8,13.4,0005.4,0024.44,0017.44,0016.36
2022-06-14 00:18:00,,0812.0,4.99,0.00,29.0,27.2,00.0,37.7,30.8,13.7,0005.2,0024.12,0017.15,0016.02
2022-06-14 00:19:00,,0812.1,5.01,0.00,29.0,27.4,00.0,37.7,30.9,13.0,0005.1,0023.56,0017.05,0015.93
2022-06-14 00:20:00,,0812.1,4.99,0.00,29.0,27.6,00.0,37.8,31.0,12.3,0005.0,0023.88,0017.05,0015.94
2022-06-14 00:21:00,,0812.0,4.99,0.00,29.1,27.8,00.0,37.8,31.1,12.0,0005.0,0024.12,0017.08,0015.98
2022-06-14 00:22:00,,0812.1,4.99,0.00,29.1,28.0,00.0,37.8,31.2,12.2,0004.9,0024.17,0017.13,0016.03
2022-06-14 00:23:00,,0812.0,5.00,0.00,29.2,28.0,00.0,37.8,31.1,12.4,0004.8,0024.08,0017.14,0016.07
2022-06-14 00:24:00,,0812.0,5.01,0.00,29.1,27.3,00.0,37.8,30.9,12.6,0004.5,0024.60,0017.19,0016.13
2022-06-14 00:25:00,,0812.0,4.99,0.00,29.1,27.0,00.0,37.7,30.8,12.7,0004.4,0023.51,0017.24,0016.19
2022-06-14 00:26:00,,0812.0,4.99,0.00,29.0,27.1,00.0,37.8,30.9,12.4,0004.2,0023.51,0017.31,0016.26
2022-06-14 00:27:00,,0812.0,5.00,0.00,29.0,27.2,00.0,37.8,30.9,11.9,0004.1,0023.49,0017.39,0016.37
2022-06-14 00:28:00,,0812.1,4.99,0.00,29.0,27.4,00.0,37.8,30.9,11.8,0004.1,0023.54,0017.49,0016.48
2022-06-14 00:29:00,,0812.0,5.00,0.00,29.1,27.7,00.0,37.8,31.0,11.5,0004.0,0023.42,0017.51,0016.54
2022-06-14 00:30:00,,0812.0,4.99,0.00,29.1,27.9,00.0,37.8,31.1,11.1,0004.3,0023.29,0017.46,0016.51
2022-06-14 00:31:00,,0812.0,4.99,0.00,29.2,28.1,00.0,37.8,31.2,10.7,0004.3,0022.80,0017.52,0016.52
2022-06-14 00:32:00,,0812.0,5.01,0.00,29.2,27.7,00.0,37.8,31.0,10.5,0004.2,0022.71,0017.60,0016.52
2022-06-14 00:33:00,,0811.9,5.00,0.00,29.1,27.1,00.0,37.8,30.8,10.2,0004.2,0023.33,0017.66,0016.54
2022-06-14 00:34:00,,0811.8,4.99,0.00,29.0,27.0,00.0,37.8,30.8,10.3,0004.1,0023.54,0017.71,0016.56
2022-06-14 00:35:00,,0811.8,4.99,0.00,29.0,27.1,00.0,37.8,30.8,10.8,0003.9,0023.40,0017.76,0016.58
2022-06-14 00:36:00,,0811.9,4.99,0.00,29.0,27.3,00.0,37.8,30.9,11.2,0004.0,0024.68,0017.83,0016.65
2022-06-14 00:37:00,,0812.0,5.00,0.00,29.0,27.6,00.0,37.8,31.0,10.9,0003.8,0025.48,0017.90,0016.70
2022-06-14 00:38:00,,0812.0,5.01,0.00,29.1,27.8,00.0,37.8,31.1,10.8,0003.4,0025.86,0017.92,0016.75
2022-06-14 00:39:00,,0812.0,5.00,0.00,29.1,28.0,00.0,37.8,31.2,10.8,0003.4,0025.96,0017.95,0016.78
2022-06-14 00:40:00,,0812.0,5.00,0.00,29.2,28.0,00.0,37.8,31.2,11.1,0003.8,0026.25,0018.04,0016.83
2022-06-14 00:41:00,,0812.1,4.99,0.00,29.1,27.3,00.0,37.8,30.9,11.6,0003.9,0026.40,0018.16,0016.95
2022-06-14 00:42:00,,0812.1,5.01,0.00,29.1,27.0,00.0,37.8,30.8,11.9,0003.8,0026.38,0018.21,0017.08
2022-06-14 00:43:00,,0812.1,4.99,0.00,29.0,27.0,00.0,37.8,30.8,12.0,0004.1,0026.46,0018.27,0017.19
2022-06-14 00:44:00,,0812.0,5.00,0.00,29.0,27.2,00.0,37.8,30.9,12.0,0004.3,0025.93,0018.36,0017.30
2022-06-14 00:45:00,,0812.0,5.00,0.00,29.0,27.4,00.0,37.8,30.9,11.9,0004.5,0025.53,0018.45,0017.39
2022-06-14 00:46:00,,0812.1,5.00,0.00,29.1,27.6,00.0,37.8,31.0,12.4,0004.9,0025.16,0018.53,0017.44
2022-06-14 00:47:00,,0812.1,5.00,0.00,29.1,27.9,00.0,37.8,31.1,12.5,0005.0,0024.00,0018.62,0017.49
2022-06-14 00:48:00,,0812.0,4.99,0.00,29.2,28.1,00.0,37.9,31.2,12.3,0005.1,0023.32,0018.66,0017.52
2022-06-14 00:49:00,,0812.0,5.01,0.00,29.2,28.1,00.0,37.9,31.2,12.9,0005.2,0023.00,0018.68,0017.54
2022-06-14 00:50:00,,0812.1,5.00,0.00,29.2,27.5,00.0,37.8,31.0,13.3,0005.3,0022.86,0018.67,0017.56
2022-06-14 00:51:00,,0812.1,5.01,0.00,29.1,27.1,00.0,37.8,30.9,14.1,0005.1,0022.51,0018.61,0017.55
2022-06-14 00:52:00,,0812.0,4.99,0.00,29.1,27.1,00.0,37.8,30.9,14.3,0005.0,0022.52,0018.63,0017.53
2022-06-14 00:53:00,,0812.0,5.01,0.00,29.0,27.3,00.0,37.8,30.9,14.1,0004.9,0023.09,0018.63,0017.51
2022-06-14 00:54:00,,0812.1,5.00,0.00,29.0,27.5,00.0,37.8,31.0,13.9,0005.0,0023.01,0018.59,0017.49
2022-06-14 00:55:00,,0812.0,5.00,0.00,29.1,27.7,00.0,37.8,31.0,14.0,0005.0,0022.71,0018.49,0017.47
2022-06-14 00:56:00,,0812.1,4.99,0.00,29.1,27.9,00.0,37.9,31.1,13.6,0004.9,0022.54,0018.49,0017.51
2022-06-14 00:57:00,,0812.1,5.00,0.00,29.2,28.1,00.0,37.9,31.2,12.6,0004.5,0022.89,0018.61,0017.65
2022-06-14 00:58:00,,0812.1,5.01,0.00,29.2,28.1,00.0,37.9,31.2,12.5,0004.5,0023.54,0018.73,0017.76
2022-06-14 00:59:00,,0812.1,5.01,0.00,29.2,27.4,00.0,37.9,30.9,13.0,0004.7,0024.42,0018.89,0017.87
